This is the latest recevied weather packets stored in our database for station/object IT9KWW-13. If no packets are shown the sender has not sent any weather packets the latest 1 day(s).
| Time | Temp. | Humidity | Pressure | Rain* | Wind** | Luminosity | Snow |
|---|---|---|---|---|---|---|---|
| 1777987389 | 21.11° C | 70% | 1013.9 hPa | 0 mm | 4.02 m/s, 202° | - | - |
| 1777987257 | 21.11° C | 70% | 1013.9 hPa | 0 mm | 4.02 m/s, 180° | - | - |
| 1777987136 | 21.11° C | 70% | 1013.9 hPa | 0 mm | 5.81 m/s, 202° | - | - |
| 1777987017 | 21.11° C | 69% | 1013.9 hPa | 0 mm | 4.92 m/s, 180° | - | - |
| 1777986885 | 21.11° C | 70% | 1013.9 hPa | 0 mm | 3.58 m/s, 180° | - | - |
| 1777986765 | 21.11° C | 71% | 1013.9 hPa | 0 mm | 3.13 m/s, 135° | - | - |
| 1777986644 | 21.67° C | 70% | 1013.9 hPa | 0 mm | 4.47 m/s, 225° | - | - |
| 1777986513 | 21.67° C | 70% | 1013.9 hPa | 0 mm | 4.92 m/s, 180° | - | - |
| 1777986393 | 21.67° C | 69% | 1013.9 hPa | 0 mm | 4.92 m/s, 202° | - | - |
| 1777986272 | 21.67° C | 68% | 1013.9 hPa | 0 mm | 4.02 m/s, 202° | - | - |
| 1777986141 | 21.67° C | 68% | 1013.9 hPa | 0 mm | 4.47 m/s, 180° | - | - |
| 1777986021 | 21.67° C | 66% | 1013.9 hPa | 0 mm | 4.47 m/s, 248° | - | - |
| 1777985901 | 21.67° C | 68% | 1013.9 hPa | 0 mm | 4.02 m/s, 202° | - | - |
| 1777985769 | 21.67° C | 69% | 1013.9 hPa | 0 mm | 2.68 m/s, 202° | - | - |
| 1777985653 | 21.11° C | 70% | 1013.9 hPa | 0 mm | 4.02 m/s, 180° | - | - |
| 1777985529 | 21.11° C | 70% | 1013.9 hPa | 0 mm | 5.81 m/s, 202° | - | - |
| 1777985397 | 21.11° C | 68% | 1013.9 hPa | 0 mm | 4.02 m/s, 180° | - | - |
| 1777985276 | 21.67° C | 69% | 1013.9 hPa | 0 mm | 3.58 m/s, 158° | - | - |
| 1777985157 | 21.67° C | 69% | 1013.9 hPa | 0 mm | 4.47 m/s, 135° | - | - |
| 1777985025 | 21.11° C | 70% | 1013.9 hPa | 0 mm | 4.47 m/s, 225° | - | - |
| 1777984904 | 21.11° C | 71% | 1013.9 hPa | 0 mm | 6.26 m/s, 158° | - | - |
| 1777984785 | 21.11° C | 70% | 1013.9 hPa | 0 mm | 4.02 m/s, 135° | - | - |
| 1777984653 | 21.67° C | 67% | 1013.9 hPa | 0 mm | 4.02 m/s, 180° | - | - |
| 1777984532 | 21.11° C | 68% | 1013.9 hPa | 0 mm | 4.02 m/s, 202° | - | - |
| 1777984412 | 21.11° C | 69% | 1013.9 hPa | 0 mm | 4.47 m/s, 202° | - | - |
* Rain latest hour (hover to see other rain measurements)
** Current wind speed in m/s (hover to see current wind gust speed)